Regional Weather Roundup
Issued by NWS Goodland, KS

Home | Current Version | Previous Version | Text Only | Print | Product List | Glossary Off
Versions: 1 2 3 4 5 6 7 8 9 10 11 12 13 14 15 16 17 18 19 20 21 22 23 24 25 26 27 28 29 30 31 32 33 34 35 36 37 38 39 40 41 42 43 44 45 46 47 48 49 50

000
ASUS43 KGLD 220859
RWRGLD

GOODLAND FORECAST AREA HOURLY WEATHER ROUNDUP
NATIONAL WEATHER SERVICE GOODLAND KS
300 AM MDT WED OCT 22 2014

...OFFICIAL OBSERVATIONS...

CITY           SKY/WX    TMP DP  RH WIND       PRES   REMARKS
GOODLAND KS    MOCLDY    51  46  83 S9        29.95S
HILL CITY KS   CLEAR     61  51  70 S12       29.98R
IMPERIAL NEB   CLOUDY    60  46  59 S10       29.91R
MCCOOK NEB     PTCLDY    61  50  67 S13       29.93S
AKRON CO       LGT RAIN  54  43  66 N12       29.97R
BURLINGTON CO  MOCLDY    58  47  66 SW10      29.96R
LIMON CO       CLOUDY    45  41  86 N5        30.00S
$$

...UNOFFICIAL OBSERVATIONS...

CITY           SKY/WX    TMP DP  RH WIND       PRES   REMARKS
COLBY KS       CLEAR     59  52  77 S15       29.96F
GOVE KS          N/A     60  32  34 MISG        N/A
NORTON KS      CLEAR     59  46  63 S9        29.95F
SHARON SPRINGS   N/A     53  48  83 S8          N/A
TRENTON NEB      N/A     61  32  33 S14         N/A
KIT CARSON CO    N/A     52  45  78 CALM        N/A
YUMA CO          N/A     56  44  64 W12         N/A
$$



USA.gov is the U.S. government's official web portal to all federal, state and local government web resources and services.